TimeCDT,TemperatureF,Dew PointF,Humidity,Sea Level PressureIn,VisibilityMPH,Wind Direction,Wind SpeedMPH,Gust SpeedMPH,PrecipitationIn,Events,Conditions,WindDirDegrees,DateUTC
12:14 AM,37.8,26.6,64,30.27,10.0,West,11.5,-,N/A,,Clear,280,2012-10-05 05:14:00
12:34 AM,36.9,26.6,66,30.27,10.0,West,10.4,-,N/A,,Clear,270,2012-10-05 05:34:00
12:55 AM,36.3,26.4,67,30.26,10.0,West,10.4,-,N/A,,Clear,260,2012-10-05 05:55:00
1:14 AM,35.6,26.4,69,30.26,10.0,West,10.4,-,N/A,,Scattered Clouds,260,2012-10-05 06:14:00
1:35 AM,35.6,26.6,70,30.25,10.0,West,9.2,-,N/A,,Scattered Clouds,270,2012-10-05 06:35:00
1:54 AM,36.0,26.6,69,30.26,10.0,West,10.4,-,N/A,,Mostly Cloudy,260,2012-10-05 06:54:00
2:14 AM,35.6,27.0,71,30.25,10.0,West,9.2,-,N/A,,Scattered Clouds,270,2012-10-05 07:14:00
2:35 AM,34.5,26.8,73,30.25,10.0,West,8.1,-,N/A,,Clear,260,2012-10-05 07:35:00
2:54 AM,33.8,26.6,75,30.25,10.0,WSW,8.1,-,N/A,,Clear,250,2012-10-05 07:54:00
3:14 AM,33.1,27.3,79,30.25,10.0,WSW,8.1,-,N/A,,Clear,250,2012-10-05 08:14:00
3:35 AM,33.1,27.7,81,30.25,10.0,WSW,5.8,-,N/A,,Clear,250,2012-10-05 08:35:00
3:54 AM,32.4,28.0,84,30.24,10.0,West,9.2,-,N/A,,Clear,260,2012-10-05 08:54:00
4:15 AM,32.9,28.2,83,30.25,10.0,West,9.2,-,N/A,,Clear,260,2012-10-05 09:15:00
4:34 AM,32.9,28.0,82,30.25,10.0,West,11.5,-,N/A,,Clear,260,2012-10-05 09:34:00
4:54 AM,33.1,27.5,80,30.24,10.0,West,11.5,-,N/A,,Clear,270,2012-10-05 09:54:00
5:15 AM,32.9,27.3,80,30.24,10.0,West,11.5,-,N/A,,Clear,260,2012-10-05 10:15:00
5:34 AM,32.4,27.1,81,30.24,10.0,West,11.5,-,N/A,,Clear,260,2012-10-05 10:34:00
5:54 AM,32.2,26.6,80,30.24,10.0,West,11.5,17.3,N/A,,Clear,270,2012-10-05 10:54:00
6:15 AM,32.0,26.4,80,30.24,10.0,West,13.8,-,N/A,,Clear,270,2012-10-05 11:15:00
6:34 AM,32.0,26.2,79,30.24,10.0,West,13.8,-,N/A,,Clear,270,2012-10-05 11:34:00
6:54 AM,31.6,25.7,79,30.24,10.0,West,11.5,-,N/A,,Clear,270,2012-10-05 11:54:00
7:15 AM,30.2,25.3,82,30.24,10.0,West,10.4,-,N/A,,Clear,260,2012-10-05 12:15:00
7:34 AM,30.2,25.2,82,30.24,10.0,West,11.5,-,N/A,,Clear,270,2012-10-05 12:34:00
7:54 AM,30.7,24.8,79,30.25,10.0,West,11.5,-,N/A,,Clear,260,2012-10-05 12:54:00
8:15 AM,31.1,25.3,79,30.26,10.0,West,11.5,-,N/A,,Clear,260,2012-10-05 13:15:00
8:35 AM,32.0,25.7,78,30.26,10.0,West,13.8,-,N/A,,Clear,270,2012-10-05 13:35:00
8:54 AM,33.6,25.5,72,30.26,10.0,West,16.1,20.7,N/A,,Clear,270,2012-10-05 13:54:00
9:14 AM,34.9,25.5,69,30.26,10.0,West,17.3,21.9,N/A,,Clear,280,2012-10-05 14:14:00
9:35 AM,36.1,25.0,64,30.27,10.0,WNW,23.0,29.9,N/A,,Clear,290,2012-10-05 14:35:00
9:54 AM,36.7,24.4,61,30.26,10.0,WNW,20.7,27.6,N/A,,Clear,290,2012-10-05 14:54:00
10:14 AM,37.6,23.5,57,30.26,10.0,WNW,21.9,29.9,N/A,,Clear,290,2012-10-05 15:14:00
10:35 AM,37.8,23.7,57,30.25,10.0,NW,20.7,29.9,N/A,,Clear,310,2012-10-05 15:35:00
10:54 AM,39.0,24.1,55,30.25,10.0,WNW,16.1,26.5,N/A,,Clear,300,2012-10-05 15:54:00
11:35 AM,41.4,22.6,47,30.25,10.0,NW,19.6,26.5,N/A,,Clear,310,2012-10-05 16:35:00
11:54 AM,42.6,21.7,44,30.24,10.0,WNW,16.1,25.3,N/A,,Clear,300,2012-10-05 16:54:00
12:14 PM,43.2,21.4,42,30.25,10.0,WNW,21.9,29.9,N/A,,Clear,300,2012-10-05 17:14:00
12:35 PM,43.0,21.0,42,30.24,10.0,NW,17.3,26.5,N/A,,Clear,310,2012-10-05 17:35:00
12:54 PM,44.6,21.0,39,30.25,10.0,NW,16.1,25.3,N/A,,Clear,310,2012-10-05 17:54:00
1:34 PM,44.8,22.3,41,30.24,10.0,WNW,18.4,27.6,N/A,,Scattered Clouds,300,2012-10-05 18:34:00
1:55 PM,45.9,23.0,41,30.24,10.0,WNW,23.0,27.6,N/A,,Scattered Clouds,300,2012-10-05 18:55:00
2:14 PM,45.9,23.0,41,30.24,10.0,NW,19.6,32.2,N/A,,Scattered Clouds,310,2012-10-05 19:14:00
2:34 PM,46.2,23.4,41,30.23,10.0,WNW,24.2,29.9,N/A,,Scattered Clouds,300,2012-10-05 19:34:00
2:54 PM,46.9,23.4,40,30.23,10.0,West,19.6,29.9,N/A,,Scattered Clouds,280,2012-10-05 19:54:00
3:14 PM,46.8,22.3,38,30.22,10.0,NW,18.4,31.1,N/A,,Scattered Clouds,310,2012-10-05 20:14:00
3:34 PM,47.3,22.6,38,30.22,10.0,WNW,23.0,32.2,N/A,,Scattered Clouds,300,2012-10-05 20:34:00
3:54 PM,46.2,22.1,39,30.22,10.0,WNW,18.4,29.9,N/A,,Scattered Clouds,300,2012-10-05 20:54:00
4:15 PM,45.5,22.1,40,30.22,10.0,WNW,21.9,29.9,N/A,,Mostly Cloudy,290,2012-10-05 21:15:00
4:34 PM,45.0,22.5,41,30.21,10.0,WNW,19.6,26.5,N/A,,Mostly Cloudy,300,2012-10-05 21:34:00
4:54 PM,44.2,22.3,42,30.22,10.0,WNW,19.6,26.5,N/A,,Scattered Clouds,290,2012-10-05 21:54:00
5:14 PM,45.0,22.3,41,30.22,10.0,WNW,18.4,27.6,N/A,,Scattered Clouds,300,2012-10-05 22:14:00
5:35 PM,44.4,22.1,41,30.23,10.0,NW,16.1,28.8,N/A,,Scattered Clouds,310,2012-10-05 22:35:00
5:54 PM,44.1,22.1,42,30.23,10.0,NW,17.3,24.2,N/A,,Mostly Cloudy,320,2012-10-05 22:54:00
6:15 PM,43.0,22.3,44,30.23,10.0,NW,17.3,24.2,N/A,,Mostly Cloudy,320,2012-10-05 23:15:00
6:34 PM,41.9,22.5,46,30.24,10.0,NW,13.8,21.9,N/A,,Scattered Clouds,320,2012-10-05 23:34:00
6:54 PM,40.6,22.8,49,30.24,10.0,NW,16.1,20.7,N/A,,Scattered Clouds,320,2012-10-05 23:54:00
7:14 PM,40.3,22.8,50,30.25,10.0,NW,17.3,20.7,N/A,,Mostly Cloudy,320,2012-10-06 00:14:00
7:34 PM,41.0,23.5,50,30.25,10.0,NW,16.1,21.9,N/A,,Overcast,310,2012-10-06 00:34:00
7:55 PM,40.5,23.7,51,30.26,10.0,NW,16.1,25.3,N/A,,Overcast,310,2012-10-06 00:55:00
8:14 PM,40.1,24.1,53,30.27,10.0,NW,12.7,23.0,N/A,,Overcast,320,2012-10-06 01:14:00
8:35 PM,39.6,23.9,54,30.27,10.0,NW,15.0,20.7,N/A,,Overcast,310,2012-10-06 01:35:00
8:54 PM,39.4,23.5,53,30.27,10.0,NW,17.3,24.2,N/A,,Overcast,320,2012-10-06 01:54:00
9:15 PM,39.2,23.7,54,30.27,10.0,NW,15.0,25.3,N/A,,Overcast,310,2012-10-06 02:15:00
9:34 PM,39.2,23.7,54,30.27,10.0,WNW,17.3,23.0,N/A,,Overcast,300,2012-10-06 02:34:00
9:54 PM,39.2,23.7,54,30.27,10.0,WNW,13.8,-,N/A,,Overcast,300,2012-10-06 02:54:00
10:34 PM,39.2,23.9,54,30.27,10.0,NW,12.7,19.6,N/A,,Overcast,310,2012-10-06 03:34:00
10:54 PM,38.8,24.1,55,30.27,10.0,NW,17.3,20.7,N/A,,Overcast,310,2012-10-06 03:54:00
11:14 PM,38.7,25.0,58,30.27,10.0,NW,13.8,21.9,N/A,,Overcast,310,2012-10-06 04:14:00
11:35 PM,38.5,25.7,60,30.27,10.0,NNW,12.7,17.3,N/A,,Overcast,330,2012-10-06 04:35:00
11:54 PM,37.4,27.5,67,30.27,10.0,NNW,13.8,19.6,N/A,,Overcast,330,2012-10-06 04:54:00